CW9236 Weather Reports


Display with metric or nautical units.
time (UTC)temp
F
wind
direction
speed
MPH
gust
MPH
rain 1hr
in
rain 24hr
in
rain mn
in
humidity
%
barometer
mb
20260509222508 88 247 1.0 3.0 0.00 0.00 0.00 60 1008.1
20260509222011 88 247 0.0 2.0 0.00 0.00 0.00 61 1008.1
20260509221530 88 247 0.0 3.0 0.00 0.00 0.00 62 1007.9
20260509221015 88 247 1.0 4.0 0.00 0.00 0.00 60 1008.0
20260509220515 88 247 1.0 4.0 0.00 0.00 0.00 60 1008.0
20260509220029 88 247 1.0 4.0 0.00 0.00 0.00 60 1007.9
20260509215508 88 246 0.0 3.0 0.00 0.00 0.00 61 1008.0
20260509215012 88 108 0.0 3.0 0.00 0.00 0.00 60 1008.1
20260509214518 88 246 0.0 3.0 0.00 0.00 0.00 59 1008.0
20260509213509 88 246 0.0 3.0 0.00 0.00 0.00 60 1007.9
20260509213025 88 245 0.0 4.0 0.00 0.00 0.00 60 1008.0
20260509212511 88 245 0.0 4.0 0.00 0.00 0.00 59 1008.1
20260509212011 88 79 0.0 2.0 0.00 0.00 0.00 63 1008.1
20260509211534 87 83 0.0 2.0 0.00 0.00 0.00 62 1008.2
20260509211008 87 94 0.0 2.0 0.00 0.00 0.00 60 1008.2
20260509210516 88 130 0.0 3.0 0.00 0.00 0.00 61 1008.2
20260509210027 88 123 0.0 3.0 0.00 0.00 0.00 60 1008.2
20260509205511 88 246 0.0 2.0 0.00 0.00 0.00 62 1008.4
20260509205007 88 246 0.0 2.0 0.00 0.00 0.00 62 1008.5
20260509204520 87 246 0.0 3.0 0.00 0.00 0.00 62 1008.7
20260509204009 87 246 0.0 4.0 0.00 0.00 0.00 63 1008.8
20260509203508 87 246 1.0 4.0 0.00 0.00 0.00 61 1008.9
20260509203026 87 344 0.0 4.0 0.00 0.00 0.00 66 1008.9
20260509202508 87 107 0.0 4.0 0.00 0.00 0.00 66 1008.9
20260509202006 86 285 0.0 3.0 0.00 0.00 0.00 64 1009.0
20260509201511 86 285 0.0 4.0 0.00 0.00 0.00 64 1009.0
20260509201003 87 285 0.0 4.0 0.00 0.00 0.00 64 1008.9
20260509200504 86 284 0.0 4.0 0.00 0.00 0.00 65 1009.0
20260509200015 86 282 0.0 6.0 0.00 0.00 0.00 66 1009.1
20260509195513 86 281 0.0 6.0 0.00 0.00 0.00 66 1009.2
20260509195008 86 285 2.0 4.0 0.00 0.00 0.00 65 1009.1
20260509194524 86 287 0.0 4.0 0.00 0.00 0.00 69 1009.2
20260509194011 86 284 0.0 4.0 0.00 0.00 0.00 67 1009.2
20260509193503 87 283 1.0 3.0 0.00 0.00 0.00 67 1009.3
20260509193007 87 319 0.0 4.0 0.00 0.00 0.00 70 1009.3
20260509192507 86 280 0.0 4.0 0.00 0.00 0.00 71 1009.3
20260509192009 86 280 1.0 4.0 0.00 0.00 0.00 70 1009.5
20260509191516 87 279 0.0 3.0 0.00 0.00 0.00 70 1009.6
20260509191011 85 279 0.0 6.0 0.00 0.00 0.00 72 1009.6
20260509190019 84 279 0.0 4.0 0.00 0.00 0.00 71 1009.5
20260509184530 85 246 1.0 3.0 0.00 0.00 0.00 68 1009.7
20260509184008 86 246 0.0 2.0 0.00 0.00 0.00 74 1009.9
20260509181514 84 80 1.0 3.0 0.00 0.00 0.00 73 1010.1
20260509181011 83 66 1.0 3.0 0.00 0.00 0.00 74 1010.3
20260509180508 84 284 1.0 3.0 0.00 0.00 0.00 72 1010.5
20260509175508 83 338 0.0 3.0 0.00 0.00 0.00 74 1010.6
20260509175008 83 61 0.0 3.0 0.00 0.00 0.00 76 1010.8
20260509174528 83 82 1.0 3.0 0.00 0.00 0.00 75 1010.8
20260509174005 83 82 1.0 3.0 0.00 0.00 0.00 74 1010.8
20260509173506 83 69 1.0 4.0 0.00 0.00 0.00 74 1010.7
20260509173024 83 53 1.0 6.0 0.00 0.00 0.00 76 1010.6
20260509172512 83 74 2.0 6.0 0.00 0.00 0.00 76 1010.8
20260509172008 83 87 0.0 4.0 0.00 0.00 0.00 77 1010.8
20260509171516 84 47 1.0 5.0 0.00 0.00 0.00 73 1010.8
20260509171009 83 57 2.0 5.0 0.00 0.00 0.00 77 1010.6
20260509170506 84 65 1.0 3.0 0.00 0.00 0.00 76 1010.5
20260509170023 83 84 1.0 3.0 0.00 0.00 0.00 78 1010.6
20260509165510 82 72 0.0 3.0 0.00 0.00 0.00 79 1010.6
20260509165008 81 63 1.0 3.0 0.00 0.00 0.00 80 1010.5
20260509164525 81 71 1.0 4.0 0.00 0.00 0.00 80 1010.6
20260509164006 80 85 1.0 4.0 0.00 0.00 0.00 83 1010.7
20260509163510 80 73 1.0 4.0 0.00 0.00 0.00 82 1010.8
20260509163015 80 253 1.0 3.0 0.00 0.00 0.00 84 1010.9
20260509162507 79 253 0.0 2.0 0.00 0.00 0.00 86 1010.9
20260509162008 78 253 0.0 2.0 0.00 0.00 0.00 86 1011.0
20260509161520 78 253 0.0 2.0 0.00 0.00 0.00 87 1011.2
20260509161009 78 253 0.0 2.0 0.00 0.00 0.00 87 1011.3
20260509160507 78 253 0.0 2.0 0.00 0.00 0.00 87 1011.2
20260509160022 77 253 0.0 2.0 0.00 0.00 0.00 87 1011.3
20260509155510 77 253 0.0 3.0 0.00 0.00 0.00 87 1011.4
20260509155010 77 253 0.0 3.0 0.00 0.00 0.00 87 1011.3
20260509154526 77 253 0.0 2.0 0.00 0.00 0.00 87 1011.3
20260509154009 77 253 0.0 3.0 0.00 0.00 0.00 87 1011.3
20260509153506 77 253 0.0 3.0 0.00 0.00 0.00 87 1011.4
20260509153015 77 253 0.0 0.0 0.00 0.00 0.00 87 1011.4
20260509152512 77 252 0.0 1.0 0.00 0.00 0.00 87 1011.4
20260509152008 77 252 0.0 3.0 0.00 0.00 0.00 87 1011.4
20260509151522 77 252 1.0 3.0 0.00 0.00 0.00 88 1011.2
20260509151006 77 253 0.0 2.0 0.00 0.00 0.00 88 1011.1
20260509150509 77 253 0.0 2.0 0.00 0.00 0.00 89 1011.1
20260509150022 77 136 0.0 1.0 0.00 0.00 0.00 89 1011.0
20260509145510 77 144 0.0 1.0 0.00 0.00 0.00 90 1010.8
20260509145011 76 148 0.0 1.0 0.00 0.00 0.00 90 1010.8
20260509144510 76 146 0.0 1.0 0.00 0.00 0.00 91 1010.6
20260509144008 76 198 0.0 0.0 0.00 0.00 0.00 92 1010.5
20260509143508 76 198 0.0 0.0 0.00 0.00 0.00 93 1010.6
20260509143018 75 223 0.0 0.0 0.00 0.00 0.00 94 1010.5
20260509142508 75 226 0.0 1.0 0.00 0.00 0.00 94 1010.6
20260509142004 75 222 0.0 1.0 0.00 0.00 0.00 94 1010.7
20260509141508 75 179 0.0 0.0 0.00 0.00 0.00 94 1010.6
20260509141007 75 158 0.0 0.0 0.00 0.00 0.00 94 1010.4
20260509140503 75 146 0.0 0.0 0.00 0.00 0.00 94 1010.3
20260509140009 75 146 0.0 1.0 0.00 0.00 0.00 94 1010.0
20260509135008 75 144 0.0 1.0 0.00 0.00 0.00 94 1010.6
20260509134517 75 144 0.0 1.0 0.00 0.00 0.00 94 1010.6
20260509134009 75 144 0.0 1.0 0.00 0.00 0.00 94 1010.7
20260509133516 75 144 0.0 1.0 0.00 0.00 0.00 94 1010.7
20260509133006 75 144 0.0 1.0 0.00 0.00 0.00 94 1010.7
20260509130504 74 288 0.0 2.0 0.00 0.00 0.00 94 1011.3
20260509125508 74 59 0.0 2.0 0.00 0.00 0.00 94 1011.0
20260509125009 74 59 0.0 2.0 0.00 0.00 0.00 94 1010.8
20260509124007 74 57 0.0 1.0 0.00 0.00 0.00 94 1010.8
20260509123007 74 51 0.0 1.0 0.00 0.00 0.00 94 1010.7
20260509122505 74 49 0.0 1.0 0.00 0.00 0.00 94 1010.7
20260509122004 73 32 0.0 1.0 0.00 0.00 0.00 94 1010.7
20260509121506 73 32 0.0 1.0 0.00 0.00 0.00 94 1010.6
20260509121003 73 30 0.0 0.0 0.00 0.00 0.00 94 1010.6
20260509120507 73 30 0.0 0.0 0.00 0.00 0.00 94 1010.6
20260509120012 73 30 0.0 0.0 0.00 0.00 0.00 94 1010.5
20260509115504 73 28 0.0 0.0 0.00 0.00 0.00 94 1010.2
20260509115010 73 28 0.0 0.0 0.00 0.00 0.00 94 1010.2
20260509114519 73 288 0.0 0.0 0.00 0.00 0.00 94 1010.4
20260509114011 74 288 0.0 0.0 0.00 0.00 0.00 94 1010.6
20260509113504 73 288 0.0 0.0 0.00 0.00 0.00 94 1010.6
20260509113007 74 288 0.0 0.0 0.00 0.00 0.00 94 1010.7
20260509112503 74 288 0.0 0.0 0.00 0.00 0.00 94 1010.8
20260509112004 74 288 0.0 0.0 0.00 0.00 0.00 94 1010.9
20260509111509 74 288 0.0 0.0 0.00 0.00 0.00 94 1010.8
20260509111006 73 300 0.0 0.0 0.00 0.00 0.00 94 1010.7
20260509110504 74 300 0.0 2.0 0.00 0.00 0.00 94 1010.7
20260509110021 74 319 0.0 2.0 0.00 0.00 0.00 94 1010.8
20260509105508 74 288 0.0 2.0 0.00 0.00 0.00 94 1010.9
20260509105009 73 289 0.0 2.0 0.00 0.00 0.00 94 1010.7
20260509104522 73 288 0.0 0.0 0.00 0.00 0.00 93 1010.4
20260509104009 73 288 0.0 1.0 0.00 0.00 0.00 93 1010.2
20260509103502 74 288 0.0 2.0 0.00 0.00 0.00 93 1010.2
20260509103009 74 288 0.0 2.0 0.00 0.00 0.00 93 1010.4
20260509102504 74 290 0.0 2.0 0.00 0.00 0.00 93 1010.3
20260509102008 74 287 0.0 2.0 0.00 0.00 0.00 93 1010.3
20260509101511 74 302 0.0 2.0 0.00 0.00 0.00 93 1010.2
20260509101004 74 75 0.0 1.0 0.00 0.00 0.00 93 1010.1
20260509100507 74 75 0.0 1.0 0.00 0.00 0.00 93 1009.9
20260509100023 74 75 0.0 2.0 0.00 0.00 0.00 93 1009.5
20260509095507 74 82 0.0 2.0 0.00 0.00 0.00 93 1009.4
20260509095014 74 61 0.0 1.0 0.00 0.00 0.00 93 1009.5
20260509094524 74 61 0.0 0.0 0.00 0.00 0.00 93 1009.6
20260509094009 74 61 0.0 0.0 0.00 0.00 0.00 93 1009.7
20260509093504 74 61 0.0 0.0 0.00 0.00 0.00 93 1009.8
20260509093006 74 61 0.0 0.0 0.00 0.00 0.00 93 1009.9
20260509092507 74 61 0.0 0.0 0.00 0.00 0.00 93 1010.0
20260509092007 74 61 0.0 0.0 0.00 0.00 0.00 93 1010.1
20260509091515 74 61 0.0 0.0 0.00 0.00 0.00 93 1010.2
20260509091007 74 61 0.0 0.0 0.00 0.00 0.00 93 1010.2
20260509090510 74 61 0.0 0.0 0.00 0.00 0.00 93 1010.2
20260509090024 74 61 0.0 0.0 0.00 0.00 0.00 93 1010.3
20260509085506 74 61 0.0 0.0 0.00 0.00 0.00 93 1010.2
20260509085006 74 61 0.0 0.0 0.00 0.00 0.00 93 1010.2
20260509084533 74 61 0.0 0.0 0.00 0.00 0.00 93 1010.2
20260509084005 74 61 0.0 0.0 0.00 0.00 0.00 93 1010.3
20260509083503 74 61 0.0 0.0 0.00 0.00 0.00 93 1010.4
20260509083021 74 61 0.0 0.0 0.00 0.00 0.00 93 1010.4
20260509082509 74 61 0.0 1.0 0.00 0.00 0.00 93 1010.3
20260509082006 74 61 0.0 1.0 0.00 0.00 0.00 93 1010.3
20260509081518 74 77 0.0 1.0 0.00 0.00 0.00 93 1010.2
20260509081008 74 77 0.0 1.0 0.00 0.00 0.00 93 1010.1
20260509074524 74 82 0.0 2.0 0.00 0.00 0.00 93 1010.3
20260509074004 74 90 0.0 2.0 0.00 0.00 0.00 93 1010.2
20260509071517 74 86 1.0 4.0 0.00 0.00 0.00 93 1010.0
20260509065508 74 83 0.0 2.0 0.00 0.00 0.00 93 1010.2
20260509064006 74 73 0.0 2.0 0.00 0.00 0.00 93 1010.3
20260509063508 74 80 0.0 2.0 0.00 0.00 0.00 93 1010.4
20260509063013 74 80 0.0 2.0 0.00 0.00 0.00 93 1010.4
20260509062509 74 77 0.0 2.0 0.00 0.00 0.00 93 1010.5
20260509062009 74 87 0.0 1.0 0.00 0.00 0.00 93 1010.6
20260509061522 74 88 0.0 2.0 0.00 0.00 0.00 93 1010.7
20260509061007 74 86 0.0 2.0 0.00 0.00 0.00 93 1010.7
20260509060508 73 85 0.0 2.0 0.00 0.00 0.00 93 1010.8
20260509060025 73 84 0.0 2.0 0.00 0.00 0.00 93 1010.9
20260509055510 73 84 0.0 2.0 0.00 0.00 0.00 93 1010.9
20260509055012 73 76 0.0 2.0 0.00 0.00 0.00 93 1010.9
20260509054510 73 83 0.0 3.0 0.00 0.00 0.00 93 1010.7
20260509054005 73 74 0.0 3.0 0.00 0.00 0.00 93 1010.7
20260509053507 73 87 1.0 4.0 0.00 0.00 0.00 93 1010.7
20260509053016 73 87 0.0 4.0 0.00 0.00 0.00 93 1010.7
20260509052508 73 80 0.0 2.0 0.00 0.00 0.00 93 1010.8
20260509052008 73 71 0.0 3.0 0.00 0.00 0.00 93 1010.8
20260509051521 73 86 0.0 3.0 0.00 0.00 0.00 93 1010.7
20260509051009 73 96 0.0 3.0 0.00 0.00 0.00 93 1010.7
20260509050509 73 82 0.0 4.0 0.00 0.00 0.00 93 1010.7
20260509050035 73 88 1.0 4.0 0.00 0.00 0.00 93 1010.7
20260509045512 73 72 1.0 3.0 0.00 0.00 0.00 93 1010.7
20260509045011 73 91 1.0 3.0 0.00 0.00 0.00 93 1010.9
20260509044511 73 79 1.0 3.0 0.00 0.00 0.00 93 1010.9
20260509044012 73 86 1.0 3.0 0.00 0.00 0.00 93 1010.9
20260509043507 73 79 0.0 4.0 0.00 0.00 0.00 93 1010.9
20260509043018 73 88 1.0 4.0 0.00 0.00 0.00 93 1010.9
20260509042509 73 88 1.0 3.0 0.00 0.00 0.00 93 1010.9
20260509042008 73 97 1.0 3.0 0.00 0.00 0.00 93 1011.0
20260509041522 73 86 1.0 3.0 0.00 0.00 0.00 92 1011.0
20260509041007 73 82 1.0 3.0 0.00 0.00 0.00 92 1010.9
20260509040507 73 81 0.0 3.0 0.00 0.00 0.00 92 1010.7
20260509040023 73 81 0.0 3.0 0.00 0.00 0.00 92 1010.6
20260509035507 73 83 0.0 2.0 0.00 0.00 0.00 92 1010.5
20260509035009 73 84 0.0 7.0 0.00 0.00 0.00 92 1010.4
20260509034514 73 85 1.0 7.0 0.00 0.00 0.00 92 1010.4
20260509034007 73 84 2.0 6.0 0.00 0.00 0.00 92 1010.4
20260509033507 73 85 2.0 6.0 0.00 0.00 0.00 92 1010.2
20260509033018 73 83 2.0 4.0 0.00 0.00 0.00 92 1010.1
20260509032512 73 90 1.0 7.0 0.00 0.00 0.00 92 1010.2
20260509032011 73 71 1.0 8.0 0.00 0.00 0.00 92 1010.3
20260509031526 73 90 2.0 8.0 0.00 0.00 0.00 92 1010.3
20260509031012 73 69 3.0 8.0 0.00 0.00 0.00 91 1010.3
20260509030511 73 82 3.0 6.0 0.00 0.00 0.00 91 1010.3
20260509030036 73 83 2.0 7.0 0.00 0.00 0.00 91 1010.2
20260509025507 73 86 2.0 7.0 0.00 0.00 0.00 91 1010.3
20260509025007 73 91 0.0 6.0 0.00 0.00 0.00 91 1010.3
20260509023509 73 94 2.0 6.0 0.00 0.00 0.00 91 1009.9
20260509023027 73 105 3.0 6.0 0.00 0.00 0.00 91 1009.8
20260509022511 73 71 2.0 7.0 0.00 0.00 0.00 91 1009.9
20260509022009 73 73 1.0 7.0 0.00 0.00 0.00 91 1009.9
20260509021526 73 88 3.0 7.0 0.00 0.00 0.00 91 1009.8
20260509021010 73 91 2.0 6.0 0.00 0.00 0.00 90 1009.7
20260509020514 73 79 2.0 7.0 0.00 0.00 0.00 90 1009.7
20260509020027 73 81 2.0 7.0 0.00 0.00 0.00 90 1009.6
20260509015507 73 87 2.0 5.0 0.00 0.00 0.00 90 1009.7
20260509015009 73 85 2.0 5.0 0.00 0.00 0.00 90 1009.8
20260509014010 73 86 1.0 4.0 0.00 0.00 0.00 90 1009.7
20260509013509 73 86 2.0 4.0 0.00 0.00 0.00 90 1009.6
20260509012510 73 86 1.0 6.0 0.00 0.00 0.00 90 1009.7
20260509012012 73 85 2.0 6.0 0.00 0.00 0.00 90 1009.7
20260509011526 73 78 2.0 6.0 0.00 0.00 0.00 90 1009.7
20260509011012 73 79 1.0 8.0 0.00 0.00 0.00 90 1009.6
20260509010513 73 85 2.0 8.0 0.00 0.00 0.00 90 1009.4
20260509010026 73 79 2.0 6.0 0.00 0.00 0.00 90 1009.4
20260509005508 73 90 1.0 4.0 0.00 0.00 0.00 90 1009.5
20260509005010 73 96 2.0 6.0 0.00 0.00 0.00 89 1009.4
20260509004531 73 74 2.0 6.0 0.00 0.00 0.00 89 1009.4
20260509004011 73 83 2.0 6.0 0.00 0.00 0.00 89 1009.4
20260509003511 73 84 2.0 5.0 0.00 0.00 0.00 89 1009.4
20260509003021 74 84 2.0 7.0 0.00 0.00 0.00 89 1009.4
20260509002511 74 83 2.0 8.0 0.00 0.00 0.00 89 1009.3
20260509002011 74 86 3.0 8.0 0.00 0.00 0.00 89 1009.2
20260509001526 74 83 3.0 6.0 0.00 0.00 0.00 89 1009.2
20260509001009 74 90 2.0 6.0 0.00 0.00 0.00 89 1009.3
20260509000510 74 87 2.0 6.0 0.00 0.00 0.00 88 1009.4
20260509000035 74 79 1.0 4.0 0.00 0.00 0.00 88 1009.5
20260508235510 74 85 1.0 6.0 0.00 0.00 0.00 88 1009.5
20260508235007 74 87 2.0 6.0 0.00 0.00 0.00 88 1009.6
20260508234521 74 82 2.0 7.0 0.00 0.00 0.00 88 1009.5
20260508234007 74 84 3.0 8.0 0.00 0.00 0.00 88 1009.5
20260508233510 74 81 2.0 9.0 0.00 0.00 0.00 88 1009.6
20260508233025 74 81 2.0 9.0 0.00 0.00 0.00 88 1009.7
20260508232508 74 84 2.0 7.0 0.00 0.00 0.00 88 1009.7
20260508232011 74 84 2.0 6.0 0.00 0.00 0.00 88 1009.7
20260508232008 74 76 2.0 6.0 0.00 0.00 0.00 88 1009.7
20260508231526 74 67 2.0 6.0 0.00 0.00 0.00 88 1009.7
20260508231008 74 98 2.0 4.0 0.00 0.00 0.00 88 1009.7
20260508230510 74 90 1.0 7.0 0.00 0.00 0.00 87 1009.8
20260508230021 75 92 3.0 7.0 0.00 0.00 0.00 87 1009.7
20260508225507 75 94 2.0 5.0 0.00 0.00 0.00 86 1009.6
20260508225011 75 94 2.0 5.0 0.00 0.00 0.00 86 1009.6
20260508224524 75 86 2.0 5.0 0.00 0.00 0.00 86 1009.5
20260508224004 75 86 2.0 7.0 0.00 0.00 0.00 86 1009.6
20260508223504 75 85 2.0 8.0 0.00 0.00 0.00 86 1009.6
20260508223009 75 88 2.0 8.0 0.00 0.00 0.00 85 1009.6